星链-31575 (STARLINK-31575 )

导读 | 星芒AI

STARLINK-31575 是 SpaceX Starlink 卫星互联网项目中的一颗低轨卫星,属于第5批部署的星链卫星之一。该卫星于2020年11月25日由猎鹰9号火箭从卡纳维拉尔角发射升空,运行在约550公里高的近地轨道上。Starlink 项目旨在通过部署数千颗卫星,为全球提供高速、低延迟的宽带互联网服务,尤其关注偏远和网络基础设施薄弱地区。STARLINK-31575 与其他星链卫星协同工作,为用户提供稳定连接,并支持星链系统的全球覆盖目标。

基本信息
目录编号:
59471
目录名称:
STARLINK-31575
国际标识:
2024-068S
轨道中心:
EARTH
卫星名称:
星链-31575
卫星全名:
星链-31575 (STARLINK-31575 )
卫星状态:
在轨 (已飞行576 天)
发射日期:
2024-04-10 UTC
国别 :
美国 (US)
星等 :
--
轨道信息
数据来源 国际轨道数据
星历时间: 2025-11-06T20:05:17+0800
1天前
查看轨道信息
半长轴: 6861.148km
偏心率: 0.0001366
轨道倾角: 43.000°
近地点辐角 294.322°
升交点赤经 6.696°
平近点角 65.749°
近地点: 482.075km
远地点: 483.951km
周期: 94.266分钟
每日圈数: 15.275929
详细信息
固有亮度:
5
最大亮度:
1.5
卫星平台:
Starlink v2.0 mini
覆盖范围:
全球
运营商:
太空探索技术公司
运营商所在国:
美国
制造商(研发单位):
太空探索技术公司
制造商所在国:
美国
使用方式:
暂无
卫星简介
星链(Starlink)计划是由太空探索技术公司(SpaceX)提出的一个巨型低轨卫星互联网星座项目,计划在2019年至2024年间在太空搭建由约1.2万颗卫星组成的“星链”网络,其中1584颗将部署在地球上空550千米处的近地轨道,并从2020年开始工作。该卫星仍在工作。
2D轨道图
3D轨道图
轨道高度分析图
轨道倾角分析图
轨道综合分析图
查看轨道综合分析图